Terug naar catalogus

STARLINK-6221

ActiefCommunicatieVLEO
NORAD 56484·PAYLOAD·🇺🇸 United States

Gelanceerd May 10, 2023 vanaf Vandenberg Space Force Base

Loading…

Volgende Passages (komende 24 uur)

TLE

VersSource: CelesTrak SupGP

Epoch: Sep 15, 2026, 02:39 UTC

1 56484C 23064AN  26258.11090278  .00117230  00000+0  98240-2 0  2589
2 56484  70.0020   6.7804 0003267 266.2132 132.4097 14.98272771    18

Volg STARLINK-6221 in realtime met AllMySat

Download on the App Store